AXB116Z VOBL-VOMM

Flight info

Callsign AXB116Z
Flight time 0h 47m
Altitude 19000
Route BIA W116 MMV
Aircraft B738/M-SDE2E3FGHIRWXY/LB1

Departure

Time 2026-04-23 09:29
Airport Kempegowda International Airport Bengaluru (VOBL)

Arrival

Time 2026-04-23 10:17
Airport Chennai International Airport (VOMM)
Time Latitude Longitude Altitude Speed Heading
2026-04-23 08:42 13.20168 77.71318 2961 ft 0 kts 180°
2026-04-23 09:09 13.20169 77.71318 2961 ft 0 kts 180°
2026-04-23 09:09 13.20181 77.71318 2961 ft 2 kts 180°
2026-04-23 09:10 13.20196 77.71318 2960 ft 2 kts 180°
2026-04-23 09:10 13.20224 77.71329 2958 ft 2 kts 224°
2026-04-23 09:10 13.20234 77.71341 2958 ft 2 kts 245°
2026-04-23 09:11 13.20238 77.71356 2957 ft 1 kts 265°
2026-04-23 09:11 13.20238 77.71363 2957 ft 1 kts 273°
2026-04-23 09:11 13.20238 77.71366 2957 ft 0 kts 270°
2026-04-23 09:12 13.20239 77.71366 2957 ft 0 kts 268°
2026-04-23 09:18 13.20239 77.71365 2957 ft 0 kts 268°
2026-04-23 09:18 13.20238 77.71333 2957 ft 8 kts 269°
2026-04-23 09:18 13.20261 77.71275 2957 ft 11 kts 341°
2026-04-23 09:19 13.20354 77.71275 2952 ft 15 kts
2026-04-23 09:19 13.20468 77.71278 2944 ft 14 kts
2026-04-23 09:19 13.20527 77.71217 2943 ft 11 kts 266°
2026-04-23 09:19 13.20526 77.71149 2946 ft 7 kts 270°
2026-04-23 09:20 13.20526 77.71101 2948 ft 8 kts 270°
2026-04-23 09:20 13.20527 77.70992 2952 ft 21 kts 271°
2026-04-23 09:20 13.20528 77.70817 2962 ft 24 kts 271°
2026-04-23 09:20 13.20527 77.70657 2971 ft 20 kts 269°
2026-04-23 09:21 13.20529 77.70526 2976 ft 17 kts 271°
2026-04-23 09:21 13.20531 77.70379 2981 ft 24 kts 270°
2026-04-23 09:21 13.20532 77.70173 2986 ft 33 kts 270°
2026-04-23 09:21 13.20536 77.69914 2986 ft 33 kts 271°
2026-04-23 09:22 13.20538 77.69695 2987 ft 30 kts 271°
2026-04-23 09:22 13.20539 77.69480 2990 ft 29 kts 271°
2026-04-23 09:22 13.20541 77.69277 2995 ft 27 kts 270°
2026-04-23 09:22 13.20542 77.69087 2998 ft 26 kts 270°
2026-04-23 09:23 13.20544 77.68900 3001 ft 25 kts 270°
2026-04-23 09:23 13.20546 77.68726 3003 ft 20 kts 269°
2026-04-23 09:23 13.20545 77.68645 3004 ft 7 kts 274°
2026-04-23 09:23 13.20586 77.68618 3004 ft 6 kts 358°
2026-04-23 09:24 13.20596 77.68618 3004 ft 0 kts 359°
2026-04-23 09:24 13.20602 77.68618 3004 ft 1 kts 360°
2026-04-23 09:24 13.20614 77.68617 3004 ft 0 kts 360°
2026-04-23 09:26 13.20617 77.68617 3004 ft 0 kts 360°
2026-04-23 09:26 13.20619 77.68617 3004 ft 0 kts
2026-04-23 09:28 13.20620 77.68617 3004 ft 0 kts
2026-04-23 09:28 13.20662 77.68617 3004 ft 13 kts
2026-04-23 09:28 13.20717 77.68701 3004 ft 16 kts 93°
2026-04-23 09:29 13.20715 77.68833 3004 ft 29 kts 90°
2026-04-23 09:29 13.20713 77.69396 2996 ft 126 kts 91°
2026-04-23 09:29 13.20695 77.70582 3181 ft 192 kts 91°
2026-04-23 09:29 13.20640 77.71951 4053 ft 203 kts 93°
2026-04-23 09:30 13.20513 77.73462 4874 ft 223 kts 95°
2026-04-23 09:30 13.20353 77.75221 5128 ft 275 kts 94°
2026-04-23 09:30 13.20240 77.77409 5047 ft 324 kts 91°
2026-04-23 09:30 13.20286 77.79576 6444 ft 306 kts 84°
2026-04-23 09:31 13.20944 77.81637 6138 ft 305 kts 57°
2026-04-23 09:31 13.22490 77.83053 6039 ft 292 kts 27°
2026-04-23 09:31 13.24423 77.83666 6044 ft 278 kts 19°
2026-04-23 09:31 13.26083 77.84567 6035 ft 270 kts 45°
2026-04-23 09:32 13.27035 77.86220 6048 ft 272 kts 76°
2026-04-23 09:32 13.27149 77.88148 6210 ft 269 kts 92°
2026-04-23 09:32 13.26984 77.90106 6377 ft 270 kts 94°
2026-04-23 09:32 13.26849 77.92033 6551 ft 273 kts 91°
2026-04-23 09:33 13.26780 77.94006 6722 ft 273 kts 90°
2026-04-23 09:33 13.26752 77.95957 6892 ft 273 kts 89°
2026-04-23 09:33 13.26736 77.97907 7065 ft 273 kts 89°
2026-04-23 09:33 13.26722 77.99875 7233 ft 274 kts 89°
2026-04-23 09:34 13.26703 78.01842 7406 ft 275 kts 89°
2026-04-23 09:34 13.26680 78.03826 7574 ft 274 kts 89°
2026-04-23 09:34 13.26658 78.05782 7747 ft 277 kts 89°
2026-04-23 09:34 13.26637 78.07769 7919 ft 275 kts 89°
2026-04-23 09:35 13.26486 78.09738 8093 ft 286 kts 98°
2026-04-23 09:35 13.25964 78.11912 8282 ft 329 kts 105°
2026-04-23 09:35 13.25250 78.14240 8450 ft 353 kts 106°
2026-04-23 09:35 13.24470 78.16685 8626 ft 359 kts 106°
2026-04-23 09:36 13.23703 78.19122 8806 ft 361 kts 106°
2026-04-23 09:36 13.22950 78.21574 8980 ft 360 kts 105°
2026-04-23 09:36 13.22205 78.24044 9152 ft 361 kts 105°
2026-04-23 09:36 13.21463 78.26537 9327 ft 363 kts 105°
2026-04-23 09:37 13.20729 78.29024 9499 ft 363 kts 105°
2026-04-23 09:37 13.19995 78.31512 9674 ft 363 kts 105°
2026-04-23 09:37 13.19261 78.34003 9849 ft 363 kts 105°
2026-04-23 09:37 13.18530 78.36484 10030 ft 364 kts 105°
2026-04-23 09:38 13.17788 78.39001 10206 ft 366 kts 105°
2026-04-23 09:38 13.17051 78.41497 10379 ft 367 kts 105°
2026-04-23 09:38 13.16307 78.44011 10555 ft 367 kts 105°
2026-04-23 09:38 13.15560 78.46535 10725 ft 368 kts 105°
2026-04-23 09:39 13.14814 78.49053 10903 ft 370 kts 105°
2026-04-23 09:39 13.14059 78.51599 11089 ft 369 kts 105°
2026-04-23 09:39 13.13304 78.54150 11265 ft 372 kts 105°
2026-04-23 09:39 13.12551 78.56690 11433 ft 372 kts 105°
2026-04-23 09:40 13.11788 78.59262 11610 ft 373 kts 105°
2026-04-23 09:40 13.11025 78.61833 11791 ft 374 kts 105°
2026-04-23 09:40 13.10269 78.64381 11963 ft 375 kts 105°
2026-04-23 09:40 13.09502 78.66967 12141 ft 377 kts 105°
2026-04-23 09:41 13.08742 78.69526 12314 ft 377 kts 105°
2026-04-23 09:41 13.07963 78.72147 12500 ft 378 kts 105°
2026-04-23 09:41 13.07198 78.74719 12669 ft 377 kts 105°
2026-04-23 09:41 13.06425 78.77322 12843 ft 379 kts 105°
2026-04-23 09:42 13.05646 78.79941 13020 ft 380 kts 105°
2026-04-23 09:42 13.04874 78.82537 13190 ft 383 kts 105°
2026-04-23 09:42 13.04095 78.85158 13358 ft 384 kts 105°
2026-04-23 09:42 13.03319 78.87757 13531 ft 363 kts 105°
2026-04-23 09:43 13.02600 78.90157 13699 ft 336 kts 105°
2026-04-23 09:43 13.01935 78.92378 13863 ft 311 kts 105°
2026-04-23 09:43 13.01318 78.94447 14036 ft 290 kts 105°
2026-04-23 09:43 13.00731 78.96425 14219 ft 289 kts 105°
2026-04-23 09:44 13.00147 78.98399 14388 ft 285 kts 105°
2026-04-23 09:44 12.99584 79.00289 14557 ft 267 kts 105°
2026-04-23 09:44 12.99040 79.02116 14735 ft 267 kts 105°
2026-04-23 09:44 12.98490 79.03966 14916 ft 269 kts 105°
2026-04-23 09:45 12.97940 79.05812 15104 ft 270 kts 105°
2026-04-23 09:45 12.97390 79.07658 15279 ft 273 kts 106°
2026-04-23 09:45 12.96838 79.09536 15460 ft 273 kts 102°
2026-04-23 09:45 12.96779 79.11522 15630 ft 287 kts 74°
2026-04-23 09:46 12.97734 79.13336 15815 ft 290 kts 49°
2026-04-23 09:46 12.98962 79.14983 15982 ft 293 kts 63°
2026-04-23 09:46 12.99430 79.17016 16141 ft 293 kts 94°
2026-04-23 09:46 12.98808 79.18990 16314 ft 295 kts 124°
2026-04-23 09:47 12.97246 79.20384 16494 ft 297 kts 156°
2026-04-23 09:47 12.95220 79.20755 16673 ft 295 kts 187°
2026-04-23 09:47 12.93292 79.20044 16796 ft 294 kts 213°
2026-04-23 09:47 12.91658 79.18803 16795 ft 291 kts 218°
2026-04-23 09:48 12.89984 79.17619 16801 ft 291 kts 211°
2026-04-23 09:48 12.88167 79.16660 16803 ft 291 kts 204°
2026-04-23 09:48 12.86252 79.15894 16811 ft 291 kts 200°
2026-04-23 09:48 12.84330 79.15238 16814 ft 292 kts 198°
2026-04-23 09:49 12.82331 79.14594 16817 ft 292 kts 198°
2026-04-23 09:49 12.80361 79.13963 16821 ft 292 kts 198°
2026-04-23 09:49 12.78422 79.13322 16819 ft 292 kts 201°
2026-04-23 09:49 12.76575 79.12428 16819 ft 292 kts 215°
2026-04-23 09:50 12.75211 79.10895 16835 ft 290 kts 245°
2026-04-23 09:50 12.74786 79.08893 16846 ft 289 kts 274°
2026-04-23 09:50 12.75291 79.06934 16848 ft 288 kts 298°
2026-04-23 09:50 12.76480 79.05257 16848 ft 290 kts 315°
2026-04-23 09:51 12.78165 79.04117 16846 ft 290 kts 341°
2026-04-23 09:51 12.80183 79.03939 16851 ft 292 kts
2026-04-23 09:51 12.82166 79.04479 16850 ft 293 kts 18°
2026-04-23 09:51 12.84098 79.05180 16834 ft 293 kts 19°
2026-04-23 09:52 12.86024 79.05887 16829 ft 293 kts 19°
2026-04-23 09:52 12.87970 79.06571 16824 ft 292 kts 18°
2026-04-23 09:52 12.89922 79.07233 16814 ft 292 kts 17°
2026-04-23 09:52 12.91850 79.07876 16804 ft 284 kts 17°
2026-04-23 09:53 12.93724 79.08495 16807 ft 280 kts 17°
2026-04-23 09:53 12.95600 79.09116 16805 ft 282 kts 17°
2026-04-23 09:53 12.97467 79.09804 16791 ft 282 kts 24°
2026-04-23 09:53 12.99138 79.10953 16781 ft 293 kts 48°
2026-04-23 09:54 13.00099 79.12779 16784 ft 295 kts 78°
2026-04-23 09:54 13.00074 79.14863 16789 ft 294 kts 105°
2026-04-23 09:54 12.99164 79.16740 16779 ft 293 kts 128°
2026-04-23 09:54 12.97673 79.18196 16779 ft 294 kts 149°
2026-04-23 09:55 12.95736 79.18874 16783 ft 293 kts 178°
2026-04-23 09:55 12.93743 79.18597 16796 ft 292 kts 197°
2026-04-23 09:55 12.91793 79.17925 16783 ft 291 kts 201°
2026-04-23 09:55 12.89863 79.17193 16793 ft 291 kts 201°
2026-04-23 09:56 12.87939 79.16491 16795 ft 292 kts 200°
2026-04-23 09:56 12.86009 79.15823 16806 ft 292 kts 199°
2026-04-23 09:56 12.84068 79.15173 16810 ft 293 kts 198°
2026-04-23 09:56 12.82121 79.14528 16820 ft 292 kts 198°
2026-04-23 09:57 12.80137 79.13875 16826 ft 292 kts 198°
2026-04-23 09:57 12.78192 79.13210 16829 ft 292 kts 202°
2026-04-23 09:57 12.76400 79.12269 16830 ft 291 kts 218°
2026-04-23 09:57 12.75120 79.10648 16849 ft 289 kts 249°
2026-04-23 09:58 12.74815 79.08619 16861 ft 289 kts 277°
2026-04-23 09:58 12.75427 79.06685 16862 ft 289 kts 300°
2026-04-23 09:58 12.76684 79.05070 16865 ft 289 kts 318°
2026-04-23 09:58 12.78429 79.04037 16860 ft 290 kts 345°
2026-04-23 09:59 12.80434 79.03978 16862 ft 291 kts 11°
2026-04-23 09:59 12.82432 79.04562 16855 ft 293 kts 18°
2026-04-23 09:59 12.84352 79.05267 16838 ft 292 kts 19°
2026-04-23 09:59 12.86278 79.05974 16828 ft 292 kts 19°
2026-04-23 10:00 12.87565 79.06428 16822 ft 292 kts 18°
2026-04-23 10:00 12.89505 79.07092 16816 ft 292 kts 18°
2026-04-23 10:00 12.91462 79.07746 16800 ft 286 kts 17°
2026-04-23 10:00 12.93930 79.08710 16798 ft 281 kts 33°
2026-04-23 10:01 12.95250 79.10174 16802 ft 284 kts 64°
2026-04-23 10:01 12.95752 79.12228 16809 ft 309 kts 88°
2026-04-23 10:01 12.95487 79.14516 16790 ft 342 kts 106°
2026-04-23 10:01 12.94696 79.16961 16788 ft 372 kts 109°
2026-04-23 10:02 12.93848 79.19600 16763 ft 400 kts 108°
2026-04-23 10:02 12.92995 79.22389 16318 ft 416 kts 107°
2026-04-23 10:02 12.92153 79.25224 15554 ft 416 kts 106°
2026-04-23 10:02 12.91326 79.28047 14785 ft 413 kts 105°
2026-04-23 10:03 12.90506 79.30853 14061 ft 407 kts 105°
2026-04-23 10:03 12.89688 79.33649 13374 ft 400 kts 104°
2026-04-23 10:03 12.88894 79.36354 12857 ft 389 kts 104°
2026-04-23 10:03 12.88123 79.38970 12454 ft 375 kts 104°
2026-04-23 10:04 12.87379 79.41492 12191 ft 359 kts 104°
2026-04-23 10:04 12.86670 79.43893 11943 ft 345 kts 104°
2026-04-23 10:04 12.85975 79.46242 11754 ft 329 kts 104°
2026-04-23 10:04 12.85363 79.48472 11592 ft 313 kts 99°
2026-04-23 10:05 12.85144 79.50641 11422 ft 297 kts 84°
2026-04-23 10:05 12.85601 79.52660 11231 ft 284 kts 69°
2026-04-23 10:05 12.86347 79.54535 10849 ft 281 kts 65°
2026-04-23 10:05 12.87126 79.56372 10437 ft 280 kts 66°
2026-04-23 10:06 12.87872 79.58219 10122 ft 276 kts 67°
2026-04-23 10:06 12.88566 79.60037 9977 ft 265 kts 68°
2026-04-23 10:06 12.89221 79.61803 9620 ft 264 kts 68°
2026-04-23 10:06 12.89867 79.63563 9225 ft 265 kts 68°
2026-04-23 10:07 12.90522 79.65342 8890 ft 263 kts 68°
2026-04-23 10:07 12.91178 79.67115 8521 ft 263 kts 68°
2026-04-23 10:07 12.91820 79.68848 8168 ft 262 kts 68°
2026-04-23 10:07 12.92469 79.70607 7854 ft 260 kts 68°
2026-04-23 10:08 12.93112 79.72346 7488 ft 261 kts 68°
2026-04-23 10:08 12.93761 79.74098 7127 ft 261 kts 68°
2026-04-23 10:08 12.94411 79.75854 6842 ft 258 kts 68°
2026-04-23 10:09 12.95628 79.79153 6545 ft 238 kts 68°
2026-04-23 10:09 12.96220 79.80757 6202 ft 235 kts 68°
2026-04-23 10:09 12.96798 79.82325 5800 ft 231 kts 69°
2026-04-23 10:09 12.97358 79.83843 5429 ft 222 kts 69°
2026-04-23 10:10 12.97898 79.85305 5056 ft 216 kts 69°
2026-04-23 10:10 12.98428 79.86736 4678 ft 211 kts 69°
2026-04-23 10:10 12.98949 79.88144 4256 ft 208 kts 70°
2026-04-23 10:10 12.99472 79.89549 3831 ft 207 kts 70°
2026-04-23 10:11 12.99797 79.90967 3406 ft 206 kts 92°
2026-04-23 10:11 12.99373 79.92340 2994 ft 203 kts 120°
2026-04-23 10:11 12.98674 79.93600 2572 ft 201 kts 115°
2026-04-23 10:11 12.98164 79.94929 2151 ft 199 kts 109°
2026-04-23 10:12 12.97716 79.96287 1813 ft 194 kts 109°
2026-04-23 10:12 12.97314 79.97536 1780 ft 173 kts 108°
2026-04-23 10:12 12.96938 79.98712 1796 ft 171 kts 109°
2026-04-23 10:12 12.96566 79.99858 1783 ft 169 kts 109°
2026-04-23 10:13 12.96169 80.01031 1766 ft 170 kts 110°
2026-04-23 10:13 12.95753 80.02163 1733 ft 168 kts 112°
2026-04-23 10:13 12.95487 80.03329 1709 ft 164 kts 95°
2026-04-23 10:13 12.95452 80.04500 1699 ft 161 kts 95°
2026-04-23 10:14 12.95348 80.05634 1675 ft 158 kts 99°
2026-04-23 10:14 12.95243 80.06759 1649 ft 159 kts 91°
2026-04-23 10:14 12.95443 80.07885 1546 ft 163 kts 75°
2026-04-23 10:14 12.95949 80.08939 1335 ft 159 kts 65°
2026-04-23 10:15 12.96421 80.09963 1080 ft 153 kts 74°
2026-04-23 10:15 12.96761 80.10979 901 ft 151 kts 75°
2026-04-23 10:15 12.97156 80.11985 711 ft 152 kts 72°
2026-04-23 10:15 12.97541 80.13000 538 ft 151 kts 75°
2026-04-23 10:16 12.97922 80.14022 378 ft 150 kts 71°
2026-04-23 10:16 12.98319 80.15022 188 ft 153 kts 73°
2026-04-23 10:16 12.98695 80.16032 48 ft 144 kts 72°
2026-04-23 10:16 12.99013 80.16946 45 ft 132 kts 52°
2026-04-23 10:17 12.99255 80.17713 47 ft 89 kts 79°
2026-04-23 10:17 12.99417 80.17950 48 ft 16 kts 324°
2026-04-23 10:17 12.99460 80.17918 47 ft 1 kts 324°
2026-04-23 10:17 12.99464 80.17915 47 ft 3 kts 322°
2026-04-23 10:18 12.99464 80.17895 47 ft 0 kts 225°
2026-04-23 10:18 12.99430 80.17870 47 ft 15 kts 208°
2026-04-23 10:18 12.99260 80.17851 50 ft 32 kts 166°
2026-04-23 10:18 12.99157 80.17740 50 ft 21 kts 249°
2026-04-23 10:19 12.99104 80.17596 49 ft 21 kts 250°
2026-04-23 10:19 12.99049 80.17451 49 ft 21 kts 249°
2026-04-23 10:19 12.98991 80.17300 48 ft 23 kts 244°
2026-04-23 10:19 12.98916 80.17158 50 ft 22 kts 249°
2026-04-23 10:20 12.98856 80.17001 48 ft 24 kts 248°
2026-04-23 10:20 12.98797 80.16843 48 ft 21 kts 249°
2026-04-23 10:20 12.98747 80.16728 47 ft 11 kts 218°
2026-04-23 10:20 12.98677 80.16738 49 ft 9 kts 158°
2026-04-23 10:21 12.98602 80.16761 51 ft 10 kts 193°
2026-04-23 10:21 12.98560 80.16673 50 ft 16 kts 250°
2026-04-23 10:21 12.98531 80.16621 51 ft 5 kts 195°
2026-04-23 10:21 12.98489 80.16630 51 ft 5 kts 161°
2026-04-23 10:22 12.98471 80.16636 52 ft 0 kts 159°
2026-04-23 10:22 12.98470 80.16637 52 ft 0 kts 159°
2026-04-23 10:22 12.98472 80.16636 52 ft 0 kts 159°
2026-04-23 10:22 12.98473 80.16635 52 ft 0 kts 159°
2026-04-23 10:24 12.98474 80.16635 52 ft 0 kts 159°